Regional Weather Roundup
Issued by NWS

Home | Current Version | Previous Version | Text Only | Print | Product List | Glossary Off
Versions: 1 2 3 4 5 6 7 8 9 10 11 12 13 14 15 16 17 18 19 20 21 22 23 24 25 26 27 28 29 30 31 32 33 34 35 36 37 38 39 40 41 42 43 44 45 46 47 48 49 50

528
ASUS43 KMPX 241610
RWRMN
WEATHER ROUNDUP FOR MINNESOTA
NATIONAL WEATHER SERVICE TWIN CITIES/CHANHASSEN MN
1000 AM CST FRI FEB 24 2017


NOTE: "FAIR" INDICATES FEW OR NO CLOUDS BELOW 12,000 FEET WITH NO
SIGNIFICANT WEATHER AND/OR OBSTRUCTIONS TO VISIBILITY. N/A MEANS
CURRENT SKY AND/OR WEATHER CONDITIONS ARE NOT AVAILABLE.

MNZ060>063-068>070-241700-
   Twin Cities Metro

CITY           SKY/WX    TMP DP  RH WIND       PRES   REMARKS
TWIN CITIES    CLOUDY    25  16  68 N20G28    29.86S WCI  11
ST PAUL        CLOUDY    26  18  71 N18G26    29.87S WCI  13
CRYSTAL        CLOUDY    25  14  63 N15       29.87S WCI  13
BLAINE         CLOUDY    27  18  69 N18G24    29.87R WCI  13
LAKEVILLE      LGT SNOW  25  19  80 N20G28    29.82S WCI  11
EDEN PRAIRIE   CLOUDY    25  16  68 N15G21    29.85S WCI  13
SOUTH ST PAUL  LGT SNOW  27  19  70 N16G24    29.84F WCI  15
LAKE ELMO      FLURRIES  28  21  74 N12G20    29.84F WCI  18
$$
MNZ001>005-007-008-013>017-022>024-027-028-241700-
   Northwest Minnesota

CITY           SKY/WX    TMP DP  RH WIND       PRES   REMARKS
BEMIDJI        CLOUDY    12   6  77 NW10      30.03S WCI  -2
HALLOCK        SUNNY     16   7  67 N12       30.16S WCI   3
ROSEAU         SUNNY      9   3  78 NW5       30.12F WCI   0
WARROAD        SUNNY     10   3  72 NW6       30.11F WCI   1
THIEF RVR FALL MOSUNNY   17   6  62 N14       30.11  WCI   3
CROOKSTON      CLOUDY   N/A N/A N/A N9        30.14F
FOSSTON        MOSUNNY   16   9  73 N14       30.07S WCI   1
DETROIT LAKES  CLOUDY    18  10  73 N8G16     30.05R WCI   7
MOORHEAD       MOSUNNY   19  10  68 N21       30.11R WCI   3
PARK RAPIDS    CLOUDY    14   4  64 N10       30.00S WCI   1
MAHNOMEN       PTSUNNY   17   8  69 N16       30.06S WCI   1
$$
MNZ006-009>011-018-025>026-241700-
   North Central Minnesota

CITY           SKY/WX    TMP DP  RH WIND       PRES   REMARKS
BAUDETTE       SUNNY     10   3  73 NW7       30.07F WCI  -1
FLAG ISLAND    SUNNY      9   3  78 NW9       30.10F WCI  -5
INTL FALLS     MOSUNNY   12   2  64 N8        30.04S WCI   0
WASKISH        CLOUDY    14   7  73 NW6       30.06S WCI   5
BIG FORK       MOSUNNY   14   3  62 N8        30.00F WCI   3
LONGVILLE      CLOUDY    14   7  73 N6        29.99S WCI   5
GRAND RAPIDS   CLOUDY    14   6  70 N9        29.99F WCI   2
CRANE LAKE     SUNNY     10   1  67 N6        30.04S WCI   1
ORR            CLOUDY    14   0  52 CALM      29.97S
COOK           MOSUNNY   12   1  62 NW7       29.98S WCI   2
WALKER         FAIR      12   4  69 N9        30.01S WCI   0
$$
MNZ012-019>021-037-241700-
   Northeast Minnesota

CITY           SKY/WX    TMP DP  RH WIND       PRES   REMARKS
DULUTH         PTSUNNY   16   9  74 N13       29.91R WCI   2
ELY            CLOUDY    10   1  67 N3        29.95F
HIBBING        CLOUDY    13   4  67 N12       29.95F WCI  -1
EVELETH        CLOUDY    15   2  57 N6        29.96S WCI   6
DULUTH HARBOR  PTSUNNY   21  16  79 NE17G25   29.97R WCI   7
TWO HARBORS    PTSUNNY   19  10  68 NE8       29.92S WCI   9
SILVER BAY     PTSUNNY   18   7  62 N7        29.93S WCI   8
GRAND MARAIS     N/A     17   3  54 NE9       30.00F WCI   6
G MARAIS ARPRT CLOUDY     9  -2  61 N10       29.89F WCI  -6
$$
MNZ029>031-032-039>041-046>048-054>057-064-241700-
   West Central Minnesota

CITY           SKY/WX    TMP DP  RH WIND       PRES   REMARKS
FERGUS FALLS   MOSUNNY   19   9  63 N14G21    30.09S WCI   6
WHEATON        MOSUNNY   21  10  63 N18G26    30.07S WCI   6
MORRIS         CLOUDY    21  10  63 N17G23    30.00S WCI   7
ALEXANDRIA     CLOUDY    19   9  65 N18G24    29.98S WCI   4
ELBOW LAKE     FAIR      19  10  66 N15       30.02S WCI   5
WADENA         PTSUNNY   14   7  73 N12       29.99S WCI   0
GLENWOOD       CLOUDY    19  10  68 N15G28    29.96S WCI   5
APPLETON       CLOUDY    23  10  58 N25       30.00R WCI   7
BENSON         CLOUDY    25   9  50 NE18      29.99S WCI  11
ORTONVILLE       N/A     21  10  63 N22G28    30.02S WCI   5
MADISON        PTSUNNY   25  12  58 N23       30.01R WCI  10
WILLMAR        FAIR      23  12  63 N21G26    29.95S WCI   8
$$
MNZ033>034-036-042>043-049>051-058-059-241700-
   Central Minnesota

CITY           SKY/WX    TMP DP  RH WIND       PRES   REMARKS
ST CLOUD       CLOUDY    21   9  59 N15G24    29.93R WCI   8
SAUK CENTRE    FAIR      19   8  63 N18G24    29.96R WCI   3
PAYNESVILLE    CLOUDY    21  10  61 N13G23    29.94S WCI   9
AITKIN         CLOUDY    18   9  68 N17       29.95R WCI   2
PINE RIVER     CLOUDY    16   7  67 N13       30.02R WCI   2
BRAINERD       CLOUDY    17   6  62 N20G26    29.97R WCI   1
STAPLES        MOSUNNY   16   7  67 N16G23    29.98S WCI   0
LONG PRAIRIE   FAIR      19   9  63 NW18G28   29.96R WCI   4
LITTLE FALLS   CLOUDY    19   9  63 N8G22     29.96S WCI   9
LITCHFIELD     CLOUDY    23  12  63 N21       29.92S WCI   8
BUFFALO        CLOUDY    24  14  66 N14       29.91S WCI  11
MAPLE LAKE     CLOUDY    24  15  67 N16G23    29.92R WCI  11
HUTCHINSON     CLOUDY    25  14  64 N16G28    29.90S WCI  12
$$
MNZ037-044-045-052-053-241700-
   East Central Minnesota

CITY           SKY/WX    TMP DP  RH WIND       PRES   REMARKS
PRINCETON      CLOUDY    25  12  58 N15G21    29.91S WCI  12
MORA           CLOUDY    21  12  68 N5        29.93R WCI  15
CAMBRIDGE      CLOUDY    25  14  63 N8G17     29.89S WCI  16
RUSH CITY      CLOUDY    23  16  74 N10G22    29.90R WCI  12
MOOSE LAKE     CLOUDY    19  12  73 NE10G17   29.91S WCI   8
HINCKLEY       CLOUDY    23  16  74 N9        29.91R WCI  13
CLOQUET        CLOUDY    16   9  73 N8G17     29.93R WCI   5
MCGREGOR       CLOUDY    18  12  79 N12       29.95R WCI   5
$$
MNZ071>073-080-081-089-090-097-098-241700-
   Southwest Minnesota

CITY           SKY/WX    TMP DP  RH WIND       PRES   REMARKS
MONTEVIDEO     CLOUDY    23  12  63 NE20      29.99S WCI   8
GRANITE FALLS  CLOUDY    25  14  64 N22       29.97S WCI  10
CANBY          CLOUDY    24  13  64 N16G26    30.00S WCI  10
MARSHALL       CLOUDY    22  13  68 N23G30    29.95R WCI   6
REDWOOD FALLS  CLOUDY    24  11  57 N17G29    29.92S WCI  11
OLIVIA         CLOUDY    27  14  59 N22G28    29.92S WCI  12
PIPESTONE      CLOUDY    21  10  63 NE23G31   29.89R WCI   5
WINDOM         CLOUDY    21  16  79 N25G31    29.86S WCI   4
WORTHINGTON    LGT SNOW  20  15  81 N26G33    29.86R WCI   2
JACKSON        CLOUDY    21  18  86 N18G28    29.84R FOG     WCI   6
TRACY          CLOUDY    24  16  73 N23G29    29.92R WCI   8
SLAYTON        CLOUDY    20  15  79 N26G33    29.89R HAZE    WCI   2
$$
MNZ065>067-074>077-082>085-091>093-241700-
   South Central Minnesota

CITY           SKY/WX    TMP DP  RH WIND       PRES   REMARKS
MANKATO        LGT SNOW  25  19  80 N20       29.85R WCI  11
NEW ULM        CLOUDY    25  14  63 N13G21    29.85F WCI  13
ST JAMES       LGT SNOW  23  18  80 N16       29.88R WCI  10
FAIRMONT       SNOW      22  20  92 N24       29.82R VSB 1/2 WCI   5
GLENCOE        CLOUDY    26  19  74 N12G24    29.88R WCI  15
FARIBAULT      LGT SNOW  25  19  80 N14G24    29.80S WCI  13
OWATONNA         N/A     25 N/A N/A N17       29.78R WCI  11
WASECA         LGT SNOW  23  21  93 N22       29.81R VSB 1   WCI   8
ALBERT LEA     CLOUDY    25  23  93 N17G23    29.75R FOG     WCI  11
$$
MNZ078>079-086>088-094>096-241700-
   Southeast Minnesota

CITY           SKY/WX    TMP DP  RH WIND       PRES   REMARKS
ROCHESTER      CLOUDY    27  25  92 N18G31    29.72R FOG     WCI  14
RED WING       LGT SNOW  28  21  74 N10G17    29.79F WCI  19
STANTON        LGT SNOW  27  22  81 N20G25    29.79S WCI  13
WINONA         CLOUDY    32  28  86 N8        29.74R WCI  25
AUSTIN           N/A     27  25  93 N14G20    29.72R WCI  15
PRESTON        CLOUDY    28  25  89 N14G22    29.68R WCI  16
$$
ABBREVIATIONS USED IN REMARKS
   TC - TEMPERATURES IN CELSIUS
  WCI - WIND CHILL INDEX
   HX - HEAT INDEX
  VSB - VISIBILITY
$$




USA.gov is the U.S. government's official web portal to all federal, state and local government web resources and services.